Theta_e
323 324 325 324 325 326 325 326 327 327 328 329 328 329 331 332 333 334 334 334 334 334 333 332 331 329 329 329 330 328 327 320 320 318 315 319 326 338 337 338 337 335 334 325 319 318 317 318 318 321 320 319 322 317 320 319 317 315 304 302 300 301 301 302 300 301 303 300 301 305 308 307 304 307 309 311 310 310 311 310 317 317 319 321 329 330 331 330
321 323 324 324 324 325 325 325 327 326 327 328 329 329 330 331 332 333 333 333 333 333 332 332 330 329 328 329 328 327 323 319 317 317 316 336 336 336 336 335 336 335 333 323 315 317 316 317 320 320 318 315 328 317 318 317 317 308 303 303 299 302 302 304 302 302 301 300 302 302 304 306 307 308 308 305 305 306 308 309 315 313 318 318 324 329 329 329
321 322 324 324 324 324 324 324 325 326 327 328 328 328 328 329 330 332 332 332 332 332 331 330 329 328 328 328 327 326 322 318 318 315 320 337 336 336 336 336 335 336 327 322 319 318 317 320 322 318 319 315 316 314 317 311 312 310 307 300 302 303 302 304 304 302 302 303 302 302 303 302 307 309 309 305 304 306 304 305 308 310 313 315 324 327 327 328
320 320 323 324 324 324 324 325 325 325 327 328 328 328 327 327 329 331 332 331 331 330 330 329 328 327 327 327 327 324 323 319 313 319 328 337 336 335 334 336 335 335 329 323 326 318 323 326 323 320 319 314 317 318 313 313 313 310 305 301 305 303 302 302 303 302 302 303 303 302 302 301 305 308 307 306 302 304 305 308 309 309 312 315 321 326 326 326
319 320 321 323 323 323 325 325 326 325 325 326 327 327 327 327 328 331 331 331 330 330 329 328 328 327 327 326 324 325 319 310 312 323 331 336 336 335 335 333 333 331 326 328 326 321 322 320 319 318 318 310 317 314 312 312 315 311 306 309 308 302 302 301 302 301 301 301 302 302 301 302 304 304 304 304 302 301 305 308 309 310 313 317 318 326 326 325
319 318 319 321 323 323 325 324 324 324 324 325 326 327 326 327 327 328 331 331 330 329 329 328 328 327 326 325 323 323 318 298 320 323 334 334 336 334 333 333 331 331 330 327 323 324 319 319 317 312 310 311 311 309 313 315 315 304 307 310 305 303 300 302 301 300 299 302 302 301 302 302 302 301 303 303 302 306 307 308 308 309 318 320 320 327 325 324
318 318 319 320 320 323 323 324 325 324 325 325 326 326 326 326 326 327 330 331 330 329 328 328 327 327 325 324 322 320 315 316 319 331 332 333 335 334 333 333 333 327 329 322 319 317 317 316 316 313 312 311 312 312 317 316 313 309 306 309 307 305 302 303 301 302 300 301 301 301 303 300 301 298 304 302 304 306 308 308 308 309 315 322 320 327 325 324
318 318 318 318 318 322 324 324 324 325 325 326 326 327 327 326 326 327 327 329 330 329 329 328 327 326 324 320 315 311 313 315 319 329 331 332 331 331 331 328 326 325 322 320 316 315 316 314 312 317 312 310 315 314 317 311 312 307 307 308 304 305 301 301 302 301 301 302 303 303 300 300 301 301 301 301 303 305 305 308 308 310 311 321 320 324 325 324
318 318 318 317 318 320 322 322 323 322 325 325 327 327 327 327 326 326 327 328 329 329 328 327 326 326 323 319 314 309 309 323 321 326 330 327 325 328 328 324 325 321 320 321 320 318 317 314 315 318 311 313 319 315 313 310 306 310 311 311 302 303 302 301 303 302 300 305 303 302 300 302 302 301 300 301 303 304 305 308 308 309 312 319 320 322 324 324
319 318 317 318 317 320 320 319 321 322 321 325 326 327 327 327 327 327 326 327 328 329 328 327 327 325 319 318 314 306 317 325 323 324 328 325 324 324 324 325 324 322 319 320 320 318 316 318 319 324 322 318 318 315 316 314 307 312 312 311 303 304 303 303 302 302 302 305 305 302 302 303 301 302 296 305 305 305 305 308 308 308 308 315 318 321 322 323
319 318 319 320 321 322 321 320 321 321 324 325 327 327 327 326 326 326 327 326 326 328 328 326 326 323 317 319 310 307 323 326 326 324 326 325 322 319 322 323 324 322 322 320 319 318 320 321 324 324 322 313 317 314 314 314 320 313 310 306 305 306 304 304 303 302 303 303 305 303 301 303 303 301 299 303 305 306 306 306 307 308 307 310 315 318 320 322
319 320 321 321 321 322 321 321 322 323 325 325 326 327 327 327 326 326 326 327 326 327 328 327 325 322 321 316 312 313 323 326 327 325 325 324 319 320 324 324 325 323 321 317 319 323 320 320 323 318 310 320 309 316 313 313 313 310 309 303 306 306 303 304 303 303 303 302 303 305 303 302 303 299 301 304 305 305 306 305 307 308 308 309 312 314 319 319
319 320 320 320 321 321 321 321 321 322 323 324 325 326 326 326 326 325 326 326 326 327 327 326 325 322 318 308 314 323 323 327 327 326 324 323 321 324 324 325 325 325 325 320 321 324 325 323 321 315 319 315 312 307 313 317 312 313 309 306 306 306 303 307 307 306 303 305 303 307 296 301 306 308 307 305 306 305 304 303 305 308 308 308 310 312 316 319
318 319 319 319 320 321 321 320 320 318 318 321 325 325 325 325 324 325 326 326 327 326 327 326 323 320 315 309 316 319 323 325 327 324 322 324 322 321 324 325 326 326 327 325 325 325 324 324 321 318 323 314 310 315 312 312 313 304 307 308 302 301 301 310 308 307 303 304 304 309 297 301 306 308 307 306 306 305 302 302 302 307 308 307 309 311 314 319
318 318 319 319 320 320 320 320 319 319 317 319 322 324 323 322 323 324 325 326 326 327 327 325 322 316 309 313 317 322 326 324 322 321 324 321 319 317 319 321 321 322 323 326 325 326 325 325 321 314 311 314 315 310 305 306 306 306 302 297 302 300 302 308 310 308 304 302 307 305 297 300 305 309 309 305 304 304 302 302 302 305 307 308 309 311 313 317
317 318 319 319 320 319 319 319 318 317 319 323 323 321 321 321 321 322 322 324 326 326 327 319 317 315 309 307 315 326 321 317 318 323 324 323 319 316 319 319 320 320 321 321 325 323 325 324 317 316 312 312 309 305 303 301 301 304 301 298 298 301 301 301 308 310 310 302 305 305 299 303 302 308 310 308 303 302 302 302 302 303 305 308 309 311 313 315
317 318 318 319 320 318 319 319 319 317 317 317 320 321 320 321 321 321 320 321 323 326 323 316 318 319 303 313 321 315 314 318 323 321 322 323 321 320 319 316 316 317 320 322 323 321 321 317 317 314 313 307 308 306 299 296 296 299 302 298 301 300 302 299 303 308 307 302 300 305 301 302 304 302 307 302 303 303 302 303 304 305 302 305 308 311 313 314
314 317 318 319 319 319 318 314 318 315 317 315 314 319 319 320 320 319 319 319 322 322 322 323 318 311 306 311 305 309 317 317 318 319 320 322 323 320 318 315 316 317 318 315 319 314 316 311 314 306 307 306 306 303 297 292 296 296 297 296 297 301 303 301 296 301 302 302 301 301 300 301 304 306 303 300 302 302 301 301 301 302 302 301 307 308 310 311
316 316 318 319 319 319 319 317 315 316 317 317 317 320 320 321 319 317 314 314 311 307 304 305 305 296 295 304 314 315 317 320 320 319 316 318 321 320 319 321 317 314 309 308 307 310 311 308 307 303 298 300 302 303 300 301 302 300 300 299 299 297 299 301 302 302 303 299 300 300 297 298 300 302 304 305 303 301 301 300 300 300 300 301 303 307 307 309
316 316 318 319 318 319 319 317 316 314 318 317 313 313 309 304 305 304 311 309 305 306 306 306 311 312 309 310 311 318 323 321 313 316 318 320 318 316 315 316 314 314 308 303 305 307 309 300 297 297 300 302 304 305 305 305 304 303 302 301 300 299 300 304 297 300 302 298 297 299 300 300 301 302 303 304 304 304 305 304 303 302 301 301 300 303 307 308
316 316 317 317 318 318 318 317 317 317 318 314 309 306 298 299 293 292 301 304 307 307 305 307 310 309 309 312 314 313 310 311 315 313 317 322 319 315 310 312 307 304 305 307 304 309 308 299 298 302 304 305 305 307 306 304 304 302 301 300 298 300 297 303 298 298 301 299 297 299 299 301 302 304 305 305 304 302 301 302 303 304 304 303 302 302 303 307
314 314 315 316 317 317 318 317 318 318 314 313 309 305 308 306 310 315 305 296 302 306 307 307 310 309 317 316 317 317 314 308 308 313 319 319 314 309 309 309 305 301 306 306 305 302 299 297 301 304 306 307 306 305 305 303 302 302 300 299 297 298 302 302 297 299 300 300 296 299 299 301 303 305 306 306 305 305 305 303 302 302 303 305 304 303 303 303
313 314 314 315 315 316 316 318 318 317 312 310 307 307 307 312 317 317 310 305 301 307 304 305 304 306 310 317 317 318 307 304 302 308 311 314 311 310 309 306 304 304 305 304 298 298 295 299 303 306 306 305 304 304 304 303 303 300 299 296 295 300 297 294 296 299 298 298 296 297 295 297 301 303 303 305 304 304 306 307 306 303 302 304 306 305 304 304
313 314 314 314 315 315 315 316 317 313 309 308 308 307 312 315 318 313 305 295 295 302 305 306 307 306 307 308 316 313 307 306 307 304 315 312 308 311 308 306 303 304 301 303 301 299 298 303 307 305 305 304 302 302 302 300 298 301 301 298 297 298 299 298 292 296 297 297 297 294 293 294 297 297 299 303 306 306 306 306 307 307 304 304 305 306 305 305
313 314 314 314 314 314 314 314 308 307 310 309 307 312 313 315 314 315 305 299 297 297 310 308 309 310 311 317 315 309 309 310 308 311 313 311 309 308 305 309 306 300 302 303 303 300 300 304 306 303 303 303 302 300 301 301 297 298 301 301 300 300 298 300 300 298 295 294 295 295 286 286 295 297 298 300 302 303 305 304 305 307 304 302 302 304 305 306
313 313 314 314 314 313 315 306 304 308 307 303 308 313 315 316 316 312 301 290 283 294 302 293 310 302 318 308 312 311 311 302 311 311 313 313 317 310 307 304 306 298 302 302 301 301 300 304 304 302 301 301 301 300 302 303 297 295 297 303 302 301 300 301 299 295 287 284 293 295 287 283 293 294 297 299 299 299 301 302 303 304 304 303 303 304 304 305
313 312 313 313 313 313 304 298 308 308 302 303 310 313 314 314 314 309 293 284 280 295 291 303 301 303 311 310 310 310 292 297 309 312 310 313 309 315 302 301 304 305 306 304 299 295 302 301 302 302 301 300 299 297 302 303 298 294 303 302 302 300 300 299 298 296 292 298 297 295 295 284 287 294 299 300 299 300 301 302 300 301 302 303 303 304 304 305
312 313 313 313 313 312 305 305 305 303 302 307 312 313 314 314 312 305 290 275 273 297 292 299 302 316 311 310 311 303 305 307 299 305 312 311 312 308 305 301 300 301 303 301 289 300 301 299 300 300 300 299 298 301 303 304 299 298 301 303 300 300 300 300 297 294 294 290 284 292 296 286 285 292 298 299 296 298 300 302 303 305 302 302 302 303 303 304
312 312 312 313 313 314 311 307 304 301 308 310 312 313 313 309 306 294 281 273 294 292 311 298 317 310 307 309 305 306 304 307 299 305 309 309 308 307 301 303 303 303 304 301 295 296 302 303 302 303 300 297 302 303 303 303 298 299 303 304 303 302 299 299 294 292 289 287 283 288 294 286 287 292 295 296 297 297 299 301 303 304 305 302 302 302 302 303
312 312 312 312 311 308 308 309 304 308 310 311 313 312 308 303 295 284 276 269 296 283 299 301 300 296 305 299 299 303 300 302 303 305 307 305 308 311 305 310 304 302 300 300 298 299 299 302 307 304 300 302 302 304 305 303 303 303 302 298 297 296 293 292 290 288 287 283 286 291 294 291 283 290 293 293 296 298 299 300 301 303 303 303 304 304 306 302
312 311 311 311 304 306 307 301 307 310 312 313 313 308 302 295 283 278 271 279 294 291 302 298 294 305 299 296 293 301 301 300 301 302 298 303 301 304 306 302 304 297 292 293 292 296 300 301 302 303 302 305 304 301 305 305 302 301 296 294 292 290 291 288 287 288 282 281 285 290 293 294 283 287 294 296 296 296 297 297 298 299 301 302 302 300 299 299
311 311 311 308 308 309 301 299 308 312 311 308 308 301 294 279 283 275 274 295 282 289 291 292 299 298 297 299 297 297 296 298 300 300 296 297 296 297 298 294 297 288 288 290 289 294 295 298 300 300 301 302 300 299 297 299 300 298 296 294 286 282 283 280 284 282 282 281 283 286 293 288 289 292 295 296 296 297 298 299 299 299 298 299 300 302 300 300
311 311 311 310 309 305 306 312 312 312 308 307 302 297 286 279 272 280 282 285 280 295 291 299 296 298 296 295 293 298 300 293 300 299 299 298 297 297 301 300 301 296 286 292 290 290 291 296 296 298 301 302 303 295 291 291 295 296 294 290 284 280 278 275 279 282 281 284 283 286 289 283 289 291 298 299 301 301 298 300 299 298 297 297 298 299 300 301
310 310 306 308 308 308 310 311 311 309 306 303 298 290 284 275 274 288 283 284 288 296 299 296 297 297 297 291 293 297 292 298 298 297 299 295 296 293 297 300 301 297 296 293 288 288 284 286 292 297 294 302 302 300 297 295 296 296 297 294 286 284 281 277 280 277 278 280 282 288 283 281 281 288 293 294 296 295 297 298 298 298 299 299 300 298 298 298
309 308 307 307 307 308 309 309 309 309 305 298 291 285 276 275 282 280 281 284 290 295 293 299 295 294 292 294 296 298 296 289 298 296 295 294 291 294 294 296 300 300 298 290 290 290 289 289 296 301 299 301 299 302 302 297 294 296 298 298 290 285 288 281 283 282 282 280 279 280 282 286 289 295 296 297 296 296 296 297 297 298 298 299 299 297 298 299
306 304 305 303 303 305 309 309 307 306 301 294 286 281 277 281 278 284 282 294 295 291 292 296 295 290 289 289 294 294 300 291 295 295 293 295 295 294 298 298 298 300 296 291 292 287 290 286 294 298 298 300 301 302 300 301 286 294 296 290 292 296 294 284 281 284 282 282 280 283 283 287 293 296 298 298 296 296 295 295 295 296 297 296 298 299 298 300
301 304 298 301 302 306 307 308 307 303 300 292 284 279 284 285 291 288 292 290 294 295 292 284 286 288 285 284 288 292 294 296 294 294 288 295 292 296 296 298 303 301 302 299 292 297 289 286 293 295 294 300 303 303 302 302 301 296 289 294 298 298 295 287 282 281 280 277 280 284 283 283 286 283 295 296 295 296 294 294 295 297 296 296 298 298 299 299
300 299 299 299 303 306 307 307 305 300 294 288 281 283 288 283 292 292 295 292 294 295 289 287 290 294 286 287 286 290 294 289 288 292 287 293 287 300 297 297 302 301 302 303 295 295 295 284 288 293 296 299 301 302 298 302 301 297 294 301 293 283 283 287 283 277 275 275 277 281 283 283 286 288 291 293 294 295 297 297 295 295 294 296 296 297 298 299
299 297 291 298 305 306 305 306 302 296 290 282 282 282 284 288 293 291 296 294 295 293 288 290 286 291 292 287 289 292 293 287 291 288 286 290 287 296 297 300 297 302 303 302 297 296 297 286 285 292 294 295 297 298 288 293 295 296 299 296 298 292 285 284 285 283 282 277 277 277 282 281 289 291 294 294 296 297 298 298 295 294 294 296 295 296 297 298
293 291 289 301 304 305 306 303 296 293 286 279 282 282 290 287 291 293 294 294 291 291 288 289 292 289 291 290 291 287 292 292 291 288 290 292 291 300 297 302 298 299 302 303 299 300 293 294 283 288 295 295 289 295 292 293 289 289 292 290 291 289 291 290 289 284 281 279 279 278 278 282 290 296 296 296 296 297 297 296 295 294 295 295 296 297 297 299
296 290 290 302 304 306 303 295 288 285 283 285 287 285 287 286 291 292 294 296 295 298 292 290 291 289 291 291 288 291 288 288 291 289 290 291 292 287 298 300 301 298 301 300 298 298 290 291 284 286 287 288 291 297 297 296 295 293 293 290 292 289 284 284 282 289 285 283 279 279 279 283 294 298 298 297 296 296 296 296 296 295 295 296 297 297 297 298
290 283 288 302 304 303 296 286 285 288 285 283 282 286 286 292 290 291 293 294 294 293 296 293 292 293 293 292 293 291 289 287 289 290 292 290 294 295 298 303 302 302 299 295 296 300 295 290 288 284 286 289 293 293 295 296 297 295 295 292 295 293 288 284 281 282 285 286 285 281 279 281 294 295 296 297 296 296 296 297 297 296 295 296 297 297 298 299
289 285 298 302 303 299 292 285 286 285 283 286 291 289 291 290 289 291 291 293 290 294 292 291 291 291 292 293 294 292 292 287 289 287 292 293 295 297 301 302 303 301 301 297 300 296 294 287 286 285 287 289 292 295 296 295 295 294 294 295 294 291 292 289 285 285 285 284 284 284 280 285 293 293 294 294 294 294 295 296 297 296 296 297 297 297 298 299
289 289 292 300 302 298 288 279 279 282 284 287 287 286 291 289 289 288 288 292 290 290 289 289 291 294 291 296 294 291 295 287 291 291 289 294 293 302 302 301 304 300 299 297 295 297 291 288 288 282 282 284 285 289 291 293 293 290 291 294 295 295 294 291 286 285 283 285 285 283 279 286 288 294 292 291 291 293 294 294 294 295 295 296 297 298 298 299
289 292 292 294 300 295 285 286 283 282 283 283 283 282 285 286 289 290 290 289 292 292 291 290 292 293 292 295 294 294 296 293 288 294 294 294 295 302 302 302 303 301 302 303 300 300 293 289 288 282 278 276 275 277 280 285 288 290 292 293 295 294 294 290 286 284 281 282 285 282 284 291 290 292 292 291 290 290 291 292 294 295 295 296 296 297 298 299
285 278 287 287 290 290 289 293 288 285 283 283 282 283 285 283 288 290 291 289 292 292 292 293 294 294 292 293 290 291 292 295 293 288 292 291 293 294 301 301 301 301 301 299 299 299 290 290 291 290 287 284 285 287 291 293 290 286 289 292 292 294 295 293 288 285 284 286 285 288 289 289 287 289 289 290 291 291 292 292 293 293 294 296 295 297 297 298
289 281 282 278 286 285 286 289 287 286 282 286 280 284 282 284 286 288 292 285 290 291 292 292 291 289 289 289 289 289 292 291 293 292 291 292 291 293 301 301 302 301 299 298 298 295 287 288 290 292 291 292 291 291 293 293 289 290 289 290 293 293 293 291 288 287 292 285 282 289 291 289 289 289 291 291 291 291 292 292 292 292 294 295 297 297 298 298
281 285 287 289 283 279 281 283 287 286 287 286 283 286 283 283 283 282 289 290 291 292 288 290 291 291 290 289 290 287 290 289 290 289 292 290 291 292 296 300 299 299 298 298 299 296 289 288 291 291 290 291 291 292 293 293 292 291 291 291 291 293 292 289 290 292 291 287 285 290 291 289 292 290 292 293 293 293 293 294 294 294 294 294 296 297 297 296
287 288 287 291 282 285 284 287 287 286 285 286 284 284 283 283 282 285 286 286 288 287 290 284 287 289 290 292 290 286 289 285 285 289 289 288 289 291 289 294 299 296 299 292 296 292 292 289 289 290 289 290 290 291 292 291 291 291 291 292 293 293 292 292 292 293 292 290 292 292 290 292 294 294 293 294 294 294 293 293 293 293 295 295 295 295 295 296
283 282 283 288 287 285 286 286 286 285 283 286 282 283 284 283 282 285 287 286 284 286 290 286 288 291 291 291 291 288 289 291 291 287 291 292 288 292 292 295 290 292 296 291 293 294 294 288 292 288 288 287 289 291 291 291 290 288 291 292 293 293 293 293 293 293 293 292 293 292 291 290 294 296 295 295 295 294 294 293 294 294 295 295 295 295 295 296
291 291 292 285 281 283 286 286 283 283 281 283 282 284 285 285 284 286 286 289 287 287 288 286 289 290 292 291 291 291 293 293 293 293 294 294 289 295 294 292 297 290 292 290 291 291 294 288 290 289 286 286 287 287 288 289 288 288 288 290 291 291 289 291 290 293 291 289 291 290 288 290 293 296 295 295 295 294 295 294 294 296 296 296 295 296 297 297
293 295 294 289 281 285 282 285 285 283 279 283 283 284 284 285 288 289 284 289 290 291 292 291 291 291 290 290 290 292 295 296 296 296 296 298 299 298 297 298 298 294 291 291 294 291 291 290 288 287 285 285 288 287 286 286 286 284 286 290 292 292 293 293 294 294 294 294 289 287 289 292 294 296 295 294 294 294 295 295 295 296 296 296 296 297 297 297
Wind_Speed
17 15 14 13 13 14 16 17 17 17 15 14 14 13 15 16 16 14 15 16 15 15 17 17 16 15 15 16 12 12 10 7 7 8 10 5 8 6 6 7 4 3 2 3 8 6 5 5 6 4 4 2 2 2 2 1 0 0 1 1 2 2 4 7 5 3 2 4 3 3 1 1 4 2 1 0 2 2 4 2 4 4 6 5 6 10 11 10
20 18 15 15 14 15 15 17 16 17 16 14 16 15 13 18 17 15 15 17 16 15 17 16 16 17 17 15 14 13 10 7 10 10 13 5 10 8 7 8 3 2 1 4 8 6 5 5 5 5 3 3 2 1 3 1 1 2 2 2 3 3 1 2 3 6 3 4 5 3 3 3 3 3 2 2 3 4 3 3 6 4 7 3 5 11 11 10
17 20 15 15 15 14 16 14 12 15 14 12 13 13 13 12 16 15 15 17 17 16 16 16 16 16 15 16 15 13 8 7 9 15 9 11 10 8 8 6 5 3 4 3 6 7 6 5 4 5 3 2 4 3 3 3 3 3 1 3 3 3 1 4 4 4 5 2 4 5 2 2 2 0 2 2 2 7 5 4 5 6 8 7 7 11 10 10
15 21 17 17 15 15 15 15 12 10 10 9 9 10 11 12 13 15 15 17 17 16 17 17 17 17 16 16 15 10 5 5 12 9 8 12 11 10 8 6 5 3 4 5 6 7 4 3 3 4 3 4 3 3 4 3 1 3 2 3 1 2 1 2 6 4 4 4 2 2 2 2 2 0 2 2 3 4 4 5 7 8 10 11 10 11 10 10
10 15 20 18 15 17 15 14 14 11 9 6 7 9 7 12 12 15 15 16 17 17 17 17 17 17 17 17 17 11 8 3 4 11 13 16 13 11 10 6 5 2 5 6 6 4 4 4 4 4 2 4 2 3 4 5 4 2 5 5 3 1 1 4 6 5 3 1 2 1 2 2 3 1 2 4 4 0 2 3 2 1 8 14 13 13 9 10
10 11 17 17 18 17 17 16 14 12 9 9 7 6 9 8 10 11 16 17 17 17 18 19 18 17 19 19 13 11 10 11 4 13 21 19 14 13 10 7 6 2 0 4 4 3 4 4 5 4 3 3 5 5 4 6 7 3 2 4 2 1 2 1 5 2 2 1 1 2 2 2 1 2 3 4 5 1 3 3 4 4 8 13 12 13 10 11
13 14 15 17 18 16 14 15 14 13 12 8 7 7 9 6 5 10 13 16 17 17 18 19 20 20 20 18 11 14 15 6 1 2 27 22 17 14 11 7 6 4 2 2 7 5 5 5 5 4 4 4 6 6 4 4 3 3 3 5 6 4 3 2 3 2 1 2 2 2 2 1 1 3 1 2 3 5 1 3 5 3 5 12 12 13 13 14
15 15 12 16 17 12 14 13 13 14 13 11 8 5 8 10 8 7 6 15 17 18 18 20 19 16 18 11 11 8 11 10 5 2 19 21 18 14 11 5 6 5 5 4 9 8 7 7 8 5 5 6 3 5 2 5 3 4 6 2 3 2 5 3 3 3 1 2 0 1 2 4 4 2 1 3 4 4 3 4 3 3 3 10 11 11 11 11
17 16 15 16 15 14 12 9 10 10 12 15 10 7 6 7 6 8 7 6 17 18 19 20 22 21 17 9 9 10 15 3 9 10 12 16 15 13 11 6 4 9 5 2 4 6 6 5 7 5 4 7 3 5 5 4 4 6 7 4 6 3 4 3 3 3 3 1 3 1 4 5 3 6 3 8 8 5 4 4 3 4 3 8 9 10 11 11
17 18 19 19 15 12 13 11 10 12 12 11 12 8 6 7 8 7 10 9 9 18 19 19 19 21 14 7 8 12 6 11 9 12 14 15 15 13 8 8 8 8 7 2 1 5 6 3 5 3 2 4 5 2 5 4 1 2 7 2 4 3 3 3 4 4 3 2 0 3 3 3 1 1 4 1 2 5 4 5 4 4 5 5 6 9 9 11
16 17 17 13 11 11 14 13 14 15 13 11 9 10 6 6 8 6 8 10 8 14 20 22 18 17 10 8 12 11 2 7 8 10 16 15 17 14 10 9 7 7 7 3 3 5 5 7 5 5 1 4 5 5 5 2 1 0 3 4 2 2 3 3 5 4 4 3 6 4 5 4 2 2 8 2 1 4 5 3 4 5 5 5 6 7 7 8
15 15 14 12 10 11 14 14 12 11 13 14 11 8 7 4 6 8 7 5 6 7 20 24 25 13 7 9 8 4 3 5 9 9 14 16 14 12 10 8 4 6 7 7 2 2 4 5 8 7 3 3 3 0 7 8 2 2 2 3 4 6 6 7 7 6 5 2 3 2 3 8 6 8 7 9 4 5 6 5 6 6 5 5 5 5 6 7
15 14 13 12 11 11 12 14 13 11 12 15 15 14 9 6 4 4 6 5 5 4 14 22 21 12 9 10 7 3 5 3 11 14 11 10 10 9 9 7 6 4 4 7 3 3 6 5 9 10 6 2 3 2 2 3 4 1 3 3 6 5 8 11 8 6 8 3 6 5 4 4 7 13 13 12 9 5 5 5 5 5 5 5 6 6 6 6
15 14 14 12 12 12 12 12 12 10 7 11 15 13 15 10 5 4 3 5 4 5 12 24 12 10 10 6 1 3 7 6 14 14 15 13 16 11 11 8 7 6 4 7 5 6 6 7 11 12 3 3 0 1 3 3 2 4 5 4 4 3 5 11 11 11 9 7 8 6 4 6 4 5 1 5 6 6 4 4 5 5 6 5 6 6 7 7
16 16 14 13 13 13 11 12 12 11 13 12 14 11 14 13 10 8 5 2 4 4 10 21 11 9 8 2 2 4 6 8 13 14 14 18 16 13 11 10 9 7 4 6 3 4 3 8 10 5 4 6 2 3 3 2 3 4 4 4 4 5 1 1 11 12 11 3 7 5 5 10 7 9 4 2 4 6 5 5 6 6 5 6 5 6 6 6
17 16 15 13 12 13 13 12 14 13 16 15 15 12 12 13 11 8 10 9 2 7 5 10 12 8 7 8 3 4 2 7 14 15 11 15 18 17 16 12 10 7 6 2 3 2 3 4 3 3 3 5 5 4 3 2 3 3 6 2 6 7 5 2 4 9 10 7 6 11 5 1 3 5 5 2 4 4 5 5 4 5 7 6 5 5 5 5
15 16 14 13 12 14 14 12 13 15 10 8 9 14 11 14 12 9 9 7 2 4 7 2 7 4 8 2 0 9 7 5 9 10 12 10 13 17 17 15 8 9 6 7 6 6 7 5 2 2 3 4 5 5 6 7 5 5 6 7 5 7 6 3 3 5 5 10 7 10 7 7 1 5 5 5 5 4 5 5 6 6 5 6 7 6 6 6
16 15 15 13 12 14 15 15 11 16 13 16 10 11 11 13 14 11 5 5 3 1 4 4 5 1 3 2 12 13 10 8 11 11 11 10 15 17 13 11 10 13 11 8 8 10 8 4 4 4 3 6 8 8 9 9 8 7 9 6 5 6 5 5 6 7 7 7 6 9 10 10 6 5 3 7 7 8 7 6 5 6 6 5 6 7 7 6
17 16 15 14 12 14 15 16 13 10 16 19 14 16 15 10 6 5 4 2 1 4 4 6 7 6 1 11 4 10 5 4 11 15 15 17 14 14 12 6 14 18 11 11 8 11 5 2 4 5 9 9 10 11 8 5 8 8 5 5 5 5 5 8 2 9 10 8 6 7 9 8 9 9 9 7 7 8 7 5 5 5 5 5 5 6 6 6
18 17 15 13 12 13 15 20 19 16 13 15 11 7 2 5 3 3 2 1 5 4 3 8 6 2 6 10 9 8 4 4 13 11 16 14 18 18 14 14 8 10 15 10 11 9 8 9 9 11 8 10 10 13 12 14 8 6 7 6 8 6 6 4 9 5 6 5 8 7 8 7 7 5 4 6 8 10 10 8 7 6 6 6 5 6 8 8
17 16 14 13 12 13 15 17 19 20 15 9 8 5 7 10 12 11 7 3 5 13 4 8 4 6 4 8 13 17 14 4 5 12 16 16 16 21 15 15 13 9 10 12 13 6 8 8 12 12 14 14 12 11 12 12 11 8 4 4 5 5 5 5 5 3 0 1 3 5 6 8 7 6 5 5 5 6 6 8 9 9 8 8 10 9 8 9
18 18 14 15 13 13 14 15 17 13 6 4 7 5 1 6 1 3 8 9 14 11 5 6 9 8 4 2 2 6 10 11 5 1 4 13 16 15 14 13 16 13 12 10 9 9 8 14 11 12 9 9 11 12 11 11 10 8 5 4 4 5 5 2 8 2 4 1 5 4 8 10 8 7 6 7 8 7 6 8 9 10 11 10 10 10 10 7
19 19 16 15 14 13 13 13 12 12 8 8 6 4 3 2 3 2 3 4 3 3 9 5 7 6 3 2 6 5 12 13 13 10 13 6 17 11 18 14 13 12 14 13 12 11 10 10 11 12 8 7 9 10 10 10 9 6 5 5 5 3 5 3 2 2 3 2 2 2 6 8 9 9 12 10 9 8 8 10 11 12 13 13 12 11 11 11
19 18 17 16 14 14 12 12 11 8 6 7 5 3 3 0 0 5 6 4 2 2 6 5 7 6 5 6 4 9 16 8 11 17 9 7 13 13 14 16 17 13 13 16 15 13 7 4 7 10 14 14 11 10 11 10 8 7 6 4 4 5 5 4 3 2 4 4 4 4 5 7 9 10 9 9 14 15 16 15 14 11 10 10 8 7 8 12
17 17 18 17 14 14 12 10 5 6 7 7 4 3 4 1 2 2 5 1 2 2 3 1 6 3 6 2 6 8 11 3 11 16 12 11 17 13 12 11 10 11 15 20 16 11 9 8 11 11 10 12 12 12 13 8 8 7 8 5 4 4 4 4 5 3 0 2 2 0 4 4 4 8 7 3 4 11 10 10 12 12 8 7 8 10 8 7
17 16 17 16 16 15 13 5 5 7 7 6 5 5 4 4 2 2 3 2 6 3 3 7 5 7 6 4 2 2 10 9 7 6 6 4 8 9 10 11 8 15 18 18 14 6 8 8 10 13 13 12 12 11 10 9 7 6 6 8 7 4 4 1 2 7 2 1 1 1 5 5 7 11 7 5 6 5 2 7 9 7 7 8 10 10 11 11
17 17 16 16 17 17 8 5 6 6 8 5 9 6 4 3 3 3 7 1 6 5 7 4 4 1 2 7 10 3 15 8 6 7 12 4 8 4 11 12 10 4 9 7 4 8 7 11 10 11 12 13 11 11 10 13 7 6 1 13 7 4 2 1 3 1 3 2 1 3 1 4 7 9 8 7 9 10 11 9 6 8 9 10 10 11 12 12
19 17 16 16 18 15 2 6 11 6 7 5 9 5 2 2 2 2 2 5 7 10 8 7 4 3 5 8 12 10 3 19 12 12 11 1 4 6 4 15 16 18 15 11 16 4 16 11 11 12 12 10 11 10 6 14 8 2 1 6 4 4 2 1 1 1 2 3 5 2 2 3 5 3 5 9 9 12 15 14 13 12 10 10 9 12 11 9
19 16 15 14 16 12 5 2 10 11 3 9 8 7 3 7 4 5 2 3 1 4 1 8 4 5 7 12 10 10 2 6 5 14 7 4 5 2 8 10 10 15 14 14 10 3 7 12 13 9 8 11 9 8 6 12 9 1 2 3 2 2 3 2 1 1 2 1 5 3 5 5 7 4 8 4 8 11 9 10 10 11 10 10 12 10 8 8
18 16 15 15 9 1 1 2 7 5 7 9 10 7 10 8 6 5 6 6 2 1 3 1 10 10 13 13 10 9 8 1 1 6 5 5 0 1 2 3 10 11 9 3 3 1 2 5 10 10 10 6 6 7 4 8 3 4 6 8 6 5 3 2 3 1 0 5 6 7 5 4 7 3 8 5 6 5 6 4 3 2 4 3 3 2 2 4
17 16 15 14 6 4 4 4 4 6 4 7 12 10 10 5 4 7 9 6 6 3 5 7 5 14 17 18 10 12 7 6 8 16 7 2 1 2 1 3 6 8 6 5 4 2 2 4 6 2 3 5 4 2 2 7 9 7 3 4 6 4 3 2 0 2 1 4 1 3 8 8 8 3 7 2 1 1 2 3 4 5 3 3 4 3 4 4
17 16 15 9 5 5 6 6 6 7 6 6 5 12 9 7 2 9 5 4 1 5 10 7 10 9 15 13 8 12 10 4 10 16 14 9 11 11 11 11 7 7 8 12 5 2 7 10 1 2 4 3 5 8 4 9 7 5 6 7 8 3 2 1 2 3 5 5 2 1 2 2 16 7 6 1 3 2 4 3 2 1 1 1 1 1 1 2
17 15 14 4 4 5 3 2 7 7 11 10 5 7 9 7 12 6 4 7 2 5 6 11 11 14 15 16 12 9 4 9 11 15 17 12 12 13 13 11 15 10 14 12 12 9 2 3 2 2 1 3 9 12 7 7 7 9 10 8 6 4 2 2 3 2 2 0 2 1 4 6 3 4 13 16 17 8 6 4 4 4 4 3 2 2 1 2
18 15 8 3 3 3 5 3 5 12 11 12 9 8 4 8 6 10 7 4 0 3 10 9 13 11 20 15 15 12 7 3 15 11 19 13 13 13 11 7 11 1 4 11 10 9 8 4 6 11 8 6 10 10 11 7 11 8 4 7 4 4 5 6 5 6 5 2 0 2 2 6 4 4 1 4 3 4 2 6 3 3 2 1 0 1 2 3
18 12 6 4 2 3 5 4 4 9 10 9 4 11 11 5 6 14 8 1 2 2 6 9 16 14 14 14 14 15 8 3 13 14 15 16 15 12 16 14 13 4 6 14 4 3 16 5 6 12 3 10 8 6 8 10 4 5 4 3 4 7 1 3 2 1 1 2 1 2 6 2 4 3 7 5 5 4 1 3 5 2 2 1 1 2 4 3
13 5 5 5 5 5 3 3 6 4 11 8 6 9 11 8 5 6 7 3 2 5 3 9 11 12 10 8 6 15 8 4 12 12 10 15 14 16 15 12 16 17 14 15 11 9 7 8 4 9 4 15 13 9 9 14 10 8 7 10 5 3 0 2 3 0 2 2 8 4 5 6 4 10 12 10 6 5 5 4 3 4 5 5 2 2 2 2
7 7 6 6 5 5 4 4 5 4 7 7 7 9 7 5 2 7 5 15 4 8 6 11 10 11 10 10 8 14 8 5 9 11 7 9 11 13 16 11 14 16 13 8 6 2 12 2 2 8 6 7 7 3 6 8 4 6 7 7 3 5 3 2 2 1 1 4 5 7 9 3 0 8 4 12 9 7 5 5 5 4 5 4 4 3 3 2
9 8 6 9 7 7 6 4 5 6 4 6 8 5 5 2 2 2 3 8 8 8 5 6 1 10 7 9 10 15 11 12 6 8 5 14 2 9 14 11 14 13 13 8 9 6 10 5 1 1 7 6 0 5 8 5 3 10 9 5 9 3 3 3 1 3 4 4 3 4 7 4 9 8 1 2 9 8 8 6 6 5 6 5 5 4 3 2
7 7 4 7 8 7 6 7 4 6 5 4 4 11 3 4 2 5 3 7 5 5 7 7 1 2 4 7 6 14 17 13 11 6 6 7 5 12 17 12 14 16 15 9 9 6 8 6 3 2 1 4 4 8 11 12 1 3 3 8 5 2 1 7 7 1 3 4 2 5 5 6 9 8 8 7 9 12 11 9 8 8 7 7 5 5 5 3
7 5 4 9 10 10 8 7 5 5 6 9 7 6 2 6 7 6 9 6 6 7 6 6 5 4 8 4 7 7 8 8 13 9 7 4 6 6 19 14 11 18 16 12 5 11 7 6 6 3 2 6 8 8 13 15 13 6 8 6 5 1 2 2 1 4 4 2 4 3 4 7 5 10 11 12 8 8 9 9 8 7 8 7 7 6 5 5
3 4 3 12 12 9 10 7 4 8 7 3 8 8 6 4 4 9 9 9 2 4 4 8 7 7 3 6 6 5 5 5 8 10 8 7 11 3 11 14 12 20 15 12 5 9 4 8 9 8 4 9 10 6 1 7 11 12 13 12 13 10 5 10 7 2 2 2 4 3 10 3 2 2 9 9 6 6 7 11 10 9 10 10 8 6 6 5
7 5 5 15 15 14 10 8 4 5 3 10 9 7 5 6 4 4 8 7 6 2 4 3 6 5 7 7 6 9 5 3 3 5 7 10 15 10 12 23 16 15 17 13 10 7 5 3 10 10 11 11 3 2 1 5 4 4 6 7 9 6 2 3 8 6 3 5 2 1 3 10 7 3 6 6 4 7 8 10 11 10 9 8 7 6 6 6
6 2 7 17 18 17 11 8 7 7 6 6 4 8 6 4 4 4 3 8 8 6 1 2 6 6 3 3 3 5 10 3 7 6 4 7 11 19 6 25 18 17 18 12 11 2 9 5 9 4 4 4 2 1 4 2 2 7 8 5 9 14 16 10 2 2 7 4 5 5 6 7 1 3 2 4 6 7 6 9 10 7 5 7 7 6 7 5
7 6 6 11 18 16 11 9 9 8 9 7 9 5 6 4 3 4 5 4 5 6 8 3 5 7 4 4 3 6 9 5 8 10 6 4 4 8 7 19 20 15 19 11 12 10 6 3 11 8 5 1 2 2 3 1 1 6 11 14 11 8 7 5 1 1 1 8 9 7 10 14 3 2 3 5 5 7 6 3 6 6 5 6 8 7 7 6
5 2 3 4 7 9 11 9 10 11 12 10 9 9 7 6 8 9 5 6 4 6 6 8 7 3 6 3 4 4 8 9 2 12 10 9 6 4 8 19 21 12 16 12 16 11 8 10 15 14 16 15 12 11 14 15 18 9 4 5 8 12 15 9 9 3 6 4 6 5 9 14 2 1 3 5 5 5 5 5 2 5 6 7 7 7 6 6
5 5 4 4 4 1 4 2 7 10 10 10 9 10 10 10 6 11 10 9 5 5 8 3 10 9 7 6 7 8 7 8 5 1 8 4 4 2 7 19 21 16 17 11 8 9 4 6 12 13 18 17 16 9 2 7 6 6 11 18 18 10 8 8 3 4 12 13 11 14 18 10 3 5 4 5 6 9 7 6 8 5 5 7 7 7 6 7
4 4 6 7 2 2 4 3 4 9 10 10 8 7 12 13 8 4 13 8 8 7 4 10 5 10 9 9 8 5 8 7 5 2 3 7 1 2 5 17 19 25 21 11 5 4 2 8 14 13 15 11 6 5 15 21 21 20 18 13 12 16 15 15 15 19 20 7 5 18 21 12 9 6 8 8 6 6 6 7 7 6 8 8 7 6 7 6
3 3 6 8 6 7 7 8 6 5 7 14 10 8 14 16 13 9 7 12 6 9 8 5 11 13 13 12 7 8 8 8 7 10 5 4 1 3 4 12 15 17 13 5 7 5 4 11 13 13 15 6 7 9 14 12 14 15 18 20 19 17 16 17 21 24 7 11 20 20 8 14 17 7 8 9 9 9 11 11 10 10 6 5 6 6 7 6
1 1 3 9 8 6 12 8 15 10 12 15 9 13 14 16 17 13 6 5 10 9 11 9 9 11 13 10 11 8 9 9 11 4 7 4 7 3 4 5 8 9 15 5 7 1 2 9 5 9 8 7 4 10 11 14 10 11 16 18 19 20 23 23 23 18 15 17 24 9 12 21 16 10 10 9 7 7 6 5 5 6 8 9 8 8 7 6
7 3 2 4 3 5 11 10 9 10 9 15 11 13 13 16 18 14 10 9 7 11 11 15 12 12 16 16 14 13 13 11 8 12 7 11 5 8 6 9 5 7 11 7 5 2 6 6 7 5 8 8 5 7 10 13 13 14 15 17 18 16 18 23 23 20 17 21 24 13 10 13 3 7 9 6 8 6 5 8 8 7 8 9 9 8 7 7
3 3 2 5 7 5 6 9 10 9 8 10 10 9 9 13 15 15 13 12 12 7 10 16 15 13 13 16 17 17 13 13 14 15 14 15 13 10 9 3 10 10 8 5 6 4 10 5 6 6 9 9 6 7 9 9 12 13 13 16 17 19 20 22 24 25 17 22 21 12 11 19 5 3 5 8 10 9 9 8 7 8 11 9 8 8 8 8
3 4 3 3 6 8 6 6 9 10 11 10 9 12 10 13 12 11 11 12 16 17 10 16 18 13 11 15 20 19 15 14 14 14 14 13 12 3 1 2 5 10 10 12 11 12 13 9 10 9 11 13 11 8 6 6 6 7 16 22 27 29 28 28 24 14 14 23 14 11 27 7 5 9 6 5 6 9 9 8 9 11 9 9 10 9 10 9
Wind_Direction
231 210 208 210 207 211 230 215 204 205 205 206 214 226 224 208 205 197 193 189 191 185 183 179 168 168 160 157 151 159 158 171 181 202 212 224 138 122 100 99 112 185 238 228 215 205 198 207 227 145 211 188 109 219 154 217 37 213 205 220 247 249 257 355 35 21 140 94 109 96 172 243 136 169 111 53 177 258 121 198 98 70 68 82 100 116 122 126
229 220 205 205 210 207 214 221 210 207 201 204 203 213 226 214 207 195 187 184 182 177 180 172 165 166 163 160 160 161 167 198 206 212 218 139 119 120 98 91 130 198 282 223 204 196 188 196 207 174 212 205 140 150 191 137 230 193 252 218 230 185 316 307 40 25 56 78 94 89 22 312 73 159 138 187 202 194 168 195 140 144 109 90 114 120 130 134
228 222 201 203 203 199 204 210 207 208 192 187 196 198 218 228 207 192 184 183 179 175 171 162 161 165 162 162 167 159 176 209 228 223 206 139 131 121 102 93 100 143 227 212 201 203 203 176 194 187 206 237 176 165 227 166 184 226 286 234 235 133 132 36 49 59 43 6 80 85 69 321 78 314 110 243 252 171 205 185 174 177 153 146 140 142 141 152
217 232 207 204 195 189 194 195 196 196 195 173 179 193 207 235 216 195 180 178 177 171 166 161 158 162 165 168 154 158 173 204 232 213 193 150 136 123 114 106 105 143 250 279 263 217 203 186 184 205 177 238 181 148 180 141 208 137 185 223 255 31 90 65 68 61 47 18 65 71 95 257 131 13 166 205 246 257 214 203 170 192 167 158 159 151 155 160
207 238 221 201 189 193 194 193 184 176 181 186 176 170 198 214 227 198 178 176 171 166 161 153 157 159 164 160 159 159 140 234 229 184 171 148 139 130 119 107 123 160 226 299 286 242 199 199 184 199 246 200 235 159 244 157 220 121 225 226 258 163 69 80 81 45 30 335 331 196 250 74 10 340 255 269 245 319 36 35 42 120 157 151 163 157 162 164
205 232 243 216 193 192 187 183 184 168 172 181 171 185 168 218 230 219 183 176 174 168 162 154 156 164 161 160 162 182 157 211 139 181 154 157 138 131 119 112 105 126 76 263 221 198 184 203 174 190 194 224 206 204 190 226 171 236 203 234 133 81 83 46 83 51 326 312 263 286 55 315 266 304 217 224 249 221 110 55 34 30 126 156 157 148 166 170
200 220 234 221 208 184 188 188 176 169 171 168 171 180 199 206 230 254 196 181 176 169 164 157 160 166 164 161 173 188 197 230 69 152 155 152 139 121 122 123 137 134 176 221 191 181 190 177 194 187 189 220 236 208 214 196 131 239 233 184 196 164 146 122 100 99 93 312 348 58 318 282 289 255 18 277 229 261 326 127 105 77 101 143 155 163 174 177
198 207 213 233 217 193 177 183 186 173 162 155 172 181 191 202 206 235 220 192 175 171 161 159 158 160 150 166 158 208 200 221 128 172 155 142 132 126 124 122 147 129 156 214 180 183 182 190 190 182 216 197 178 218 155 120 180 217 246 276 80 120 107 149 140 158 170 208 297 120 248 255 232 245 57 245 266 287 273 124 126 119 146 157 159 171 176 176
191 184 199 230 215 183 168 170 189 181 171 153 156 168 180 193 201 231 215 205 181 168 162 158 161 160 169 169 183 162 209 157 148 138 142 140 133 132 133 121 156 154 159 210 236 174 181 198 193 207 202 209 208 210 129 190 201 204 242 212 140 186 161 144 168 177 181 251 182 251 252 248 225 101 263 249 241 227 256 119 140 151 192 170 169 177 174 180
177 178 192 202 203 178 162 173 183 185 184 153 148 156 181 185 201 212 223 200 208 161 158 160 164 154 163 186 170 202 168 134 139 148 163 146 142 139 149 129 158 154 152 162 6 180 181 172 209 226 330 294 137 207 108 196 124 317 217 246 140 201 167 157 208 182 177 248 210 240 275 282 58 248 263 237 211 200 187 154 159 174 199 188 178 179 183 180
173 179 189 185 170 159 159 172 171 180 165 146 143 144 159 183 199 206 235 205 187 182 163 163 154 151 172 189 175 197 340 148 139 155 162 151 145 154 144 147 152 149 136 95 69 30 16 10 339 327 180 253 134 199 157 180 260 326 343 98 231 246 194 198 206 217 146 221 211 239 270 294 238 159 228 214 180 121 137 186 184 194 203 202 197 182 186 189
172 173 178 174 162 162 162 172 168 159 151 149 143 142 148 158 184 187 226 225 198 201 179 163 158 162 175 183 205 174 289 121 139 143 160 154 158 148 125 132 127 137 147 134 90 51 35 339 314 250 230 171 154 174 210 107 158 134 191 230 209 214 226 212 216 202 175 232 151 105 318 268 239 239 215 236 194 180 176 189 193 193 205 201 199 189 181 196
172 171 174 171 161 163 162 173 161 163 164 158 152 140 127 130 147 187 181 191 214 208 173 159 159 172 151 189 210 299 304 176 130 143 150 157 132 112 112 106 98 87 94 114 89 31 28 356 308 261 222 167 181 179 354 126 181 226 199 250 270 214 229 217 204 201 180 187 147 105 267 228 229 232 223 215 210 186 200 211 197 191 199 207 192 192 184 191
168 172 176 177 158 162 162 165 147 151 161 178 134 133 122 110 118 128 163 160 165 221 189 162 166 171 174 185 208 284 313 331 137 144 157 143 125 116 103 99 88 70 35 68 57 25 4 324 305 272 287 226 145 349 164 125 199 188 208 208 226 236 255 204 191 182 199 149 153 134 247 257 277 334 345 195 201 174 207 218 217 194 196 202 199 189 190 192
169 168 175 182 157 158 159 150 149 175 162 184 129 131 124 112 99 75 61 177 144 202 197 168 169 147 194 191 312 282 327 313 160 154 151 151 123 119 119 118 102 103 75 67 64 38 4 304 305 284 222 90 92 191 143 179 160 234 176 217 219 220 302 86 163 172 189 139 167 148 247 257 241 250 247 160 166 161 219 227 221 207 198 196 193 193 192 196
171 165 172 180 160 149 150 148 152 175 175 159 141 140 135 121 113 87 60 50 106 171 170 193 172 174 152 198 178 93 320 180 169 156 159 151 148 145 139 122 119 113 125 113 83 74 258 261 283 260 221 105 195 194 152 177 200 229 225 219 191 195 202 172 188 172 186 130 185 180 236 203 258 230 244 235 150 194 210 224 242 228 202 192 190 194 197 194
169 159 166 175 159 148 154 152 157 161 147 151 137 137 140 128 110 82 61 54 45 156 166 214 172 191 177 273 135 158 172 197 138 151 158 154 139 129 127 127 134 138 159 133 159 174 206 184 255 331 259 194 182 199 189 204 193 201 201 238 235 194 194 225 126 202 161 143 179 213 236 246 233 169 206 158 183 205 220 228 235 249 247 193 186 188 197 201
164 158 166 171 161 144 139 155 152 149 157 134 172 124 116 106 107 89 48 40 27 203 184 266 171 203 178 195 164 179 166 163 161 151 149 148 129 132 130 135 138 140 137 144 179 188 182 185 160 173 174 206 197 200 202 199 192 190 196 217 248 272 223 176 162 186 164 199 197 198 230 251 249 260 206 189 202 206 215 213 224 227 229 233 187 184 193 201
154 162 164 164 160 145 142 138 140 155 148 142 142 124 115 107 88 55 71 78 73 162 211 181 177 196 190 188 189 122 145 167 138 159 153 153 140 130 119 77 147 140 157 166 173 179 166 135 160 177 193 193 200 202 206 233 191 222 193 203 238 241 221 235 122 148 176 184 223 207 224 228 238 237 233 230 198 208 214 210 218 219 219 237 201 186 198 209
150 155 155 148 149 144 139 143 152 156 156 130 140 132 63 117 148 185 91 114 220 261 55 338 219 357 53 129 137 113 86 183 152 176 157 143 141 140 136 147 174 159 157 177 158 207 165 164 186 196 190 187 198 205 210 225 244 229 212 196 223 227 255 225 128 190 196 167 207 221 240 244 257 256 243 222 214 219 225 221 217 212 212 219 224 197 200 206
144 137 137 141 147 140 139 142 148 156 155 135 123 153 172 168 159 204 174 224 225 236 281 307 302 342 324 164 151 148 142 119 165 168 169 146 150 145 150 155 167 178 186 157 149 157 193 189 198 188 191 184 192 215 220 232 247 257 258 218 225 234 247 269 136 160 86 198 233 216 244 250 250 253 246 251 255 239 209 215 219 223 216 208 210 216 206 206
146 135 142 141 139 142 140 142 149 142 109 122 151 166 171 173 275 295 147 216 228 228 220 260 320 323 6 344 85 133 125 141 165 298 295 175 164 161 163 166 171 175 171 146 138 164 197 208 182 189 196 193 202 206 226 233 236 243 234 213 233 232 240 41 116 138 120 80 265 261 268 269 260 256 253 239 239 239 228 218 215 212 221 222 214 212 214 206
145 140 139 131 135 140 143 139 141 138 143 169 174 188 110 215 249 357 88 15 296 165 231 224 256 267 286 62 169 152 133 156 163 190 199 191 174 177 160 166 176 166 171 167 167 171 197 217 192 176 185 219 216 212 219 231 240 237 219 227 222 210 190 201 15 130 176 182 300 319 305 290 285 270 262 256 254 250 236 233 227 210 213 215 216 207 206 207
143 140 134 135 133 133 135 132 130 151 155 169 185 102 192 232 231 134 134 178 276 160 194 205 211 226 233 181 192 190 165 172 152 184 205 179 179 150 169 170 168 175 183 175 181 185 179 126 193 184 187 204 200 199 213 219 223 233 240 212 232 224 213 240 151 251 153 225 218 306 291 267 257 257 249 235 224 230 231 234 241 231 218 213 219 225 205 203
144 141 139 138 136 133 132 128 141 150 155 162 164 169 208 165 162 171 105 44 260 265 78 47 166 232 199 42 297 189 170 115 191 172 186 186 168 157 177 167 171 187 183 184 187 193 198 147 182 207 202 208 196 200 209 194 222 225 226 223 235 262 272 203 155 167 328 314 115 198 338 283 231 237 249 270 208 224 234 230 231 232 221 205 217 226 234 231
148 142 142 139 137 137 138 156 178 157 164 171 158 183 181 197 149 158 158 106 262 171 79 218 99 237 111 220 91 237 145 192 171 180 185 211 217 166 152 187 172 178 184 183 193 207 191 149 170 197 202 199 203 206 193 191 212 220 213 195 240 281 317 311 210 79 293 214 215 252 180 273 338 310 288 298 316 298 290 205 226 222 215 203 212 219 226 229
146 147 144 143 139 138 152 169 156 141 166 174 154 170 178 144 162 129 152 126 270 156 155 115 164 270 148 167 161 134 183 177 77 144 192 310 205 19 177 167 172 184 179 170 183 204 174 175 180 198 202 200 201 208 181 182 203 229 316 176 197 211 237 8 4 139 261 347 158 205 146 248 279 255 266 296 281 266 265 256 232 221 217 211 210 214 222 225
147 146 145 150 151 164 145 153 145 175 185 137 144 148 138 45 72 64 235 172 244 117 179 169 221 116 208 161 155 186 327 132 158 183 183 157 314 176 235 181 175 173 175 172 197 148 177 173 185 192 200 193 203 197 167 179 201 189 296 119 173 193 195 217 92 282 277 58 293 186 194 284 234 268 220 221 245 251 250 247 246 238 220 214 215 220 222 224
145 144 149 154 164 195 1 16 159 173 177 138 139 138 97 68 25 151 174 182 122 99 301 159 148 161 123 151 170 199 356 187 150 148 123 62 18 163 190 199 181 177 176 180 179 25 177 193 180 194 188 196 192 185 206 174 189 270 241 109 133 143 36 17 94 73 358 57 249 182 186 242 272 242 276 211 223 240 232 229 228 228 214 201 211 218 216 214
143 143 145 148 147 149 228 304 167 145 146 141 135 124 106 106 94 161 154 250 83 150 139 186 174 182 143 164 179 196 184 310 75 99 120 152 211 13 314 299 183 181 156 123 72 55 95 353 165 191 200 189 172 192 174 169 123 146 101 84 73 61 63 37 64 48 8 253 242 201 223 180 298 221 216 214 223 222 210 229 227 115 101 102 135 168 210 180
145 143 144 150 155 155 154 142 111 130 141 151 144 132 123 120 166 158 184 207 68 204 116 159 155 153 158 172 176 187 192 147 140 143 147 132 150 18 92 89 11 65 35 55 73 310 125 123 173 222 64 182 138 59 22 126 135 131 127 126 89 35 82 81 254 106 201 251 16 229 196 183 217 268 253 221 284 21 79 140 122 128 112 73 39 49 76 95
146 147 149 164 135 133 174 153 127 95 90 34 172 144 140 138 253 199 192 40 67 175 163 142 167 157 163 166 189 183 177 143 161 163 155 175 166 169 196 163 150 116 162 164 171 193 168 173 114 103 352 144 130 112 50 124 153 125 137 147 122 173 98 270 154 216 205 245 241 302 154 237 237 227 276 224 232 186 203 191 188 147 75 35 20 131 134 128
147 148 156 173 124 165 102 10 127 113 110 128 155 155 155 166 193 195 215 141 271 129 188 146 163 173 159 169 190 190 192 185 168 174 156 177 173 190 192 183 180 164 168 176 154 150 215 37 347 82 191 215 161 155 152 151 187 165 173 164 152 147 156 215 189 217 295 199 314 42 31 268 299 273 226 252 263 234 207 202 134 145 166 193 210 246 195 194
150 148 155 170 158 146 98 75 113 107 127 147 159 151 161 179 205 177 205 182 97 316 161 158 159 169 167 182 184 172 208 201 173 176 169 169 184 173 198 216 203 126 66 150 152 162 126 183 233 157 202 176 199 180 167 143 159 179 168 180 187 169 163 192 175 196 201 175 198 223 100 235 117 255 305 249 260 340 190 156 169 160 150 155 100 319 300 283
153 152 148 136 180 155 133 107 56 126 136 146 134 166 168 186 177 181 211 156 339 165 197 164 156 167 180 180 170 179 159 191 193 165 185 166 193 182 179 191 203 216 146 146 209 172 180 152 173 182 48 160 178 148 140 126 119 200 177 164 216 224 147 144 200 123 139 115 218 253 209 238 210 307 288 244 250 244 241 187 138 163 167 146 174 230 244 234
145 158 144 152 184 157 156 119 91 112 141 162 164 178 189 181 185 177 195 147 193 174 180 180 158 166 182 182 162 167 155 92 189 180 191 186 176 185 186 178 188 194 171 177 151 175 169 207 177 170 289 180 178 154 168 152 173 189 175 206 204 327 89 131 22 160 92 30 254 173 292 286 271 277 262 269 243 238 207 194 194 198 173 162 189 150 140 129
145 141 162 172 182 160 157 119 124 128 131 169 198 205 190 193 251 162 169 187 171 133 167 178 188 158 178 183 158 182 153 96 201 186 201 173 196 191 181 192 185 191 221 168 175 283 164 119 345 160 150 195 194 142 149 181 108 134 196 206 102 56 61 103 179 73 144 218 267 151 224 255 196 287 229 211 218 227 206 204 188 178 149 143 153 151 162 160
145 164 169 173 174 154 147 127 144 125 101 175 206 223 162 234 269 238 138 187 195 173 151 199 231 172 176 160 184 171 168 168 178 207 175 183 291 174 182 180 192 199 202 213 167 181 116 84 270 297 169 166 242 120 161 217 211 183 182 149 140 227 242 238 101 224 173 219 269 238 212 232 194 230 22 195 197 217 216 199 155 167 148 146 159 168 177 186
130 141 166 191 144 151 145 153 143 137 159 187 203 223 143 219 281 258 262 193 210 197 209 195 129 242 141 188 151 177 164 190 162 193 154 190 190 194 188 172 190 196 206 197 184 150 165 132 129 332 203 181 194 174 181 188 262 342 127 183 223 64 226 161 194 170 111 231 209 286 161 253 197 224 211 231 193 199 209 198 174 169 155 160 174 179 182 175
150 130 209 150 150 148 145 137 114 144 187 199 202 237 155 207 215 251 248 247 205 194 219 210 205 145 190 188 165 155 180 182 172 166 192 172 198 154 190 193 180 193 201 216 193 153 179 124 149 158 241 162 189 199 204 177 171 178 177 190 200 197 250 96 235 172 169 188 199 263 280 258 243 202 202 213 190 196 184 167 150 162 155 169 174 180 185 185
142 129 148 140 134 132 131 105 126 172 187 215 230 224 225 213 161 216 251 245 281 303 240 224 207 206 141 151 175 179 143 154 174 182 179 172 187 146 218 193 181 190 192 214 213 168 143 173 148 138 164 198 203 193 242 180 186 187 179 188 184 160 123 170 225 157 222 153 224 213 254 263 300 149 192 203 185 172 155 141 157 170 167 172 176 181 179 184
147 161 165 141 134 140 141 152 185 182 194 205 201 197 213 221 258 204 205 241 238 216 334 295 246 206 185 193 142 168 134 160 184 175 206 184 200 215 188 193 195 180 180 196 187 201 151 116 128 172 187 183 158 311 108 18 178 203 187 202 179 185 172 140 201 219 162 236 322 127 319 273 221 158 154 183 162 142 149 148 164 177 172 165 172 176 189 185
166 155 111 141 151 150 147 182 178 183 208 222 228 220 236 239 236 222 218 183 216 164 256 275 229 230 254 195 150 148 157 179 169 204 189 221 213 209 160 190 182 182 189 203 181 235 64 121 107 69 55 357 4 54 8 30 88 193 225 207 179 197 198 198 139 147 175 175 214 229 242 247 298 5 43 97 134 142 134 148 159 157 149 155 167 177 187 201
157 134 146 171 162 159 155 181 182 189 207 225 218 239 203 260 251 246 229 211 202 174 193 206 300 257 224 146 170 173 167 203 183 192 247 247 279 197 170 192 186 188 185 191 179 197 173 243 120 120 105 137 3 9 233 200 184 215 203 205 204 204 196 222 47 23 167 212 194 166 233 253 235 166 112 108 117 123 134 136 140 149 162 163 173 190 191 200
136 91 113 169 197 184 186 176 181 188 199 201 192 212 212 220 230 233 226 219 201 222 197 201 216 222 234 177 180 148 181 194 129 203 204 200 236 147 189 183 194 215 210 183 186 168 197 156 155 170 166 172 178 190 189 196 205 201 213 184 212 200 194 180 222 187 224 236 171 208 253 250 107 87 139 139 127 119 153 162 153 149 170 178 185 195 194 192
168 148 158 157 190 41 325 274 211 191 192 191 200 218 209 226 227 223 230 253 224 211 217 214 197 224 239 201 212 187 182 206 185 118 196 221 217 254 186 184 186 208 211 219 177 157 183 182 200 188 186 191 196 189 98 88 79 180 183 197 198 202 187 194 173 219 228 218 195 219 226 252 145 199 195 171 166 165 175 162 167 189 194 194 191 191 192 202
143 185 153 174 145 287 220 204 209 200 203 171 208 187 213 224 230 230 194 233 218 235 221 216 200 199 215 216 217 215 187 189 205 150 178 232 301 277 218 181 190 202 202 185 249 177 113 185 208 201 217 216 167 123 151 163 180 195 190 188 188 193 196 190 192 211 211 77 257 233 226 228 232 199 197 192 193 181 175 176 181 183 200 195 193 192 207 218
152 206 173 182 168 166 179 219 222 213 206 180 208 181 206 211 214 223 171 215 224 214 230 205 209 214 216 201 177 205 190 202 181 214 163 248 297 274 218 190 193 195 176 191 198 198 159 207 202 197 216 182 136 152 160 169 188 188 186 188 191 188 197 205 214 225 162 202 223 234 178 222 227 183 208 200 183 188 180 189 191 187 179 183 180 198 209 217
8 93 198 153 205 162 200 168 190 188 206 192 203 199 202 208 214 211 214 188 211 214 208 226 215 210 229 215 193 206 188 184 208 186 196 152 201 199 221 189 220 144 172 176 186 193 144 228 201 199 207 201 179 155 163 167 174 176 184 192 191 187 199 210 224 218 198 224 234 227 174 220 228 201 207 207 190 184 191 169 152 164 177 180 191 203 214 210
182 143 167 157 244 203 183 190 187 200 224 201 208 202 208 205 213 209 216 220 199 213 200 226 219 201 210 220 217 215 203 208 188 198 194 178 188 206 217 196 148 192 175 180 176 239 177 219 192 174 202 208 201 167 165 168 164 183 186 187 188 193 205 218 227 225 213 236 243 239 267 278 245 199 194 186 171 185 133 150 172 169 170 191 200 210 218 220
138 201 42 154 189 220 207 171 186 194 205 210 215 214 222 213 214 206 217 210 224 206 198 219 218 215 210 216 222 228 219 211 216 213 194 186 198 194 202 228 168 163 178 178 176 185 188 222 172 176 195 217 206 185 187 167 171 175 182 182 182 188 201 213 222 220 201 224 231 239 266 254 172 148 160 180 187 173 173 176 169 192 200 195 197 210 213 216
85 28 83 162 207 193 210 189 193 178 217 217 214 213 214 214 223 202 222 214 216 227 210 207 214 207 214 212 221 224 224 226 226 223 208 198 201 148 177 239 206 179 178 190 176 183 191 185 183 173 202 217 197 170 151 128 134 188 191 188 191 198 202 210 221 220 210 220 213 200 234 221 154 169 180 211 166 182 185 178 199 211 209 195 199 202 207 212